Location: Coors Field
(39.7564°N, 104.9943°W)
Time: 21:29:52
(UTC-06:00)

ISS - Visible Passes

Search period start: 29 July 2016 00:00
Search period end: 08 August 2016 00:00
Orbit: 401 x 404 km, 51.6° (Epoch: 29 July)

Date Brightness Start Highest point End Pass type
(mag) Time Alt. Az. Time Alt. Az. Time Alt. Az.
29 Jul 0.2 00:08:41 10° NNW 00:09:19 10° N 00:09:57 10° N visible
29 Jul -1.3 21:35:51 10° W 21:38:47 30° NNW 21:41:43 10° NE visible
29 Jul 0.1 23:14:50 10° NNW 23:16:01 11° N 23:17:13 10° NNE visible
30 Jul -2.4 20:42:34 10° WSW 20:45:45 53° NW 20:48:56 10° NE visible
30 Jul -0.2 22:20:57 10° NW 22:22:46 14° NNW 22:24:34 10° NNE visible
30 Jul 0.1 23:59:31 10° N 00:00:19 11° N 00:00:34 11° N visible
31 Jul -0.4 21:27:11 10° WNW 21:29:33 18° NNW 21:31:56 10° NNE visible
31 Jul 0.1 23:06:28 10° N 23:07:01 10° N 23:07:34 10° N visible
01 Aug -0.1 22:12:42 10° NNW 22:13:42 11° N 22:14:44 10° N visible
01 Aug 0.0 23:49:42 10° NNW 23:50:33 12° N 23:50:33 12° N visible
02 Aug -0.3 21:18:48 10° NW 21:20:26 13° NNW 21:22:05 10° NNE visible
02 Aug -0.2 22:57:03 10° N 22:58:00 11° N 22:58:58 10° NNE visible
03 Aug -0.1 22:04:10 10° N 22:04:41 10° N 22:05:14 10° N visible
03 Aug 0.0 23:39:50 10° NNW 23:40:36 14° NNW 23:40:36 14° NNW visible
04 Aug -0.2 21:10:32 10° NNW 21:11:23 11° N 21:12:14 10° N visible
04 Aug -0.5 22:47:11 10° NNW 22:48:56 14° NNE 22:49:21 13° NNE visible
05 Aug -0.4 21:54:32 10° NNW 21:55:40 11° N 21:56:48 10° NNE visible
05 Aug -0.1 23:30:01 10° NW 23:30:43 14° NNW 23:30:43 14° NNW visible
06 Aug -0.3 21:01:45 10° N 21:02:21 10° N 21:02:57 10° NNE visible
06 Aug -1.0 22:37:19 10° NNW 22:39:31 19° NNE 22:39:31 19° NNE visible
07 Aug -0.7 21:44:39 10° NNW 21:46:34 15° NNE 21:48:20 11° NE visible
07 Aug -0.2 23:20:19 10° NW 23:20:56 15° NW 23:20:56 15° NW visible
